Regional Weather Roundup
Issued by NWS Goodland, KS

Home | Current Version | Previous Version | Text Only | Print | Product List | Glossary On
Versions: 1 2 3 4 5 6 7 8 9 10 11 12 13 14 15 16 17 18 19 20 21 22 23 24 25 26 27 28 29 30 31 32 33 34 35 36 37 38 39 40 41 42 43 44 45 46 47 48 49 50
000
ASUS43 KGLD 211559
RWRGLD

GOODLAND FORECAST AREA HOURLY WEATHER ROUNDUP
NATIONAL WEATHER SERVICE GOODLAND KS
1000 AM MDT TUE APR 21 2015

...OFFICIAL OBSERVATIONS...

CITY           SKY/WX    TMP DP  RH WIND       PRES   REMARKS
GOODLAND KS    SUNNY     55  41  59 NW8       29.93R
HILL CITY KS   SUNNY     56  31  38 CALM      29.91S
IMPERIAL NEB   SUNNY     52  29  41 W5        29.90F
MCCOOK NEB     SUNNY     55  29  36 SW8       29.90S
AKRON CO       SUNNY     54  37  52 W10       29.92S
BURLINGTON CO  SUNNY     58  38  47 NW7       29.93R
LIMON CO       SUNNY     57  25  29 VRB5      29.95R
$$

...UNOFFICIAL OBSERVATIONS...

CITY           SKY/WX    TMP DP  RH WIND       PRES   REMARKS
COLBY KS       SUNNY     59  36  41 N6        29.92F
GOVE KS          N/A     59  32  36 MISG        N/A
NORTON KS      SUNNY     55  21  26 CALM      29.89S
SHARON SPRINGS   N/A     61  44  53 MISG        N/A
TRIBUNE KS     MOSUNNY   63  45  51 SW13      29.94
KIT CARSON CO    N/A     56  40  56 MISG        N/A
YUMA CO          N/A     54  34  47 CALM        N/A
$$



USA.gov is the U.S. government's official web portal to all federal, state and local government web resources and services.